Погода Владимир-Волынский

Погода Владимир-Волынский : погода сейчас, прогноз погоды и архив. Всё, что Вы хотите узнать о погоде Владимир-Волынский!

Хотите узнать прогноз погоды Владимир-Волынский? Тогда Вам сюда: Погода Владимир-Волынский

Поиск расширенной информации на нашем сайте:

Другие новости

Новости СМИ2

Главная страница сайта

Новости сайта

03.07.2017

Напоминаем, что на нашем специализированном сайте Метеоцентр.Азия вы можете получить высокодетализированные автоматические прогнозы погоды по пунктам России, СНГ и мира в авиационном формате (включающие направление и скорость ветра, видимость, явления погоды, количество и форму облачности, нижнюю и верхнюю границу облачности).

Рекомендуем: Световое шоу flagro светодиодные крылья.

Погода Владимир-Волынский - сегодня

Время (UTC), дата Ветер
(°,м/с) 
Видим.   Явления Облачность Т
(°С)
Тd
(°С)
f(%) Тe
(°С)
Pmin
(гПа)
dP
(гПа)
Po
(мм)
O2
(г/м3)
Тmin Tmax R s Состояние
почвы
18 17.02.18 230 (ЮЗ) 10 км    9/9 600 м 
[Sc]
+1.3 -2.2 77 +2  1022.6  -0.2  749  301    +3.3       
21 17.02.18 270 (З) 10 км    10/10 600 м 
[Sc]
+0.2 -3.1 78 -2  1022.5  -0.2  749  302           
00 18.02.18 020 (С) 4000 м  слаб. снег  10/10 300 м 
[Frnb|Ns]
+0.3 -0.3 96 -1  1014.7  0.1  743  299    +1.6  0.4     
03 18.02.18 250 (З) 4000 м  дымка  10/10 600 м 
[Sc]
-1.1 -2.4 91 -1  1022.1  -0.4  748  303           
06 18.02.18 270 (З) 4000 м  дымка  10/10 600 м 
[Sc]
-0.6 -2.1 90 -1  1022.9  0.8  749  303  -1.4      равномерный
мокрый или
старый снег
100% 
09 18.02.18 300 (СЗ) 4000 м  слаб. ливневой дождь со снегом  10/10 600 м кучево-дожд. 
[Cb cap]
+0.6 -0.5 92 -1  1023.2  0.4  749  301           
12 18.02.18 360 (С) 20000 м  {ливн. осадки}  8/8 600 м 
[Sc]
+1 -1 86 -1  1024.2  750  301      0.0     
15 18.02.18 340 (С) 20000 м    9/9 600 м 
[Sc]
-0.1 -2.5 84 -2  1025.4  1.1  751  303           
18 18.02.18 310 (СЗ) 10 км    10/10 600 м 
[Sc]
-1.1 -3 87 -2  1026.6  1.1  752  304    +1.4  0.0     
21 18.02.18 330 (СЗ) 10 км    10/10 600 м 
[Sc]
-1.5 -3.2 88 -3  1027.3  0.6  752  305           
00 19.02.18 320 (СЗ) 10 км    10/10 600 м 
[Sc]
-2.4 -4 89 -3  1027.8  0.4  752  306           
03 19.02.18 320 (СЗ) 10 км    10/10 600 м 
[Sc]
-2.9 -4.6 88 -2  1027.5  -0.3  752  307           
06 19.02.18 тихо ()   4000 м  дымка  ясно 
-6.5 -7.3 94 -7  1028.2  0.3  752  311  -6.8      равномерный
мокрый или
старый снег
100% 
09 19.02.18 240 (ЮЗ) 10 км    ясно 
-1.5 -7.1 66 -2  1027.8  0.1  752  306           
12 19.02.18 270 (З) 20000 м    ясно 
-0.9 -7.4 61 -2  1026.8  -0.9  752  305           
15 19.02.18 тихо ()   20000 м    3/0 верхняя 
[Ci fib]
-0.6 -7 62 -1  1026.1  -0.7  751  304           
18 19.02.18 тихо ()   10 км    ясно 
-8 -11.1 78 -8  1026.4  -0.4  751  313    -0.6       
21 19.02.18 тихо ()   4000 м  дымка  ясно 
-10.9 -11.8 93 -11  1026.2  -0.5  750  316           
00 20.02.18 010 (С) 4000 м  дымка  ясно 
-11.3 -11.9 95 -11  1026.1  -0.1  750  317           
03 20.02.18 030 (СВ) 4000 м  слаб. ливневой дождь со снегом  10/10 600 м кучево-дожд. 
[Cb cap]
+0.6 -0.5 92 1006.2  -0.4  737  296         
06 20.02.18 220 (ЮЗ) 10 км    10/10 600 м 
[Sc]
+4.7 +2.2 84 +6  1005.5  1.1  736  291  +3.4         
09 20.02.18 120 (ЮВ) 20000 м    4/0 верхняя 
[Ci fib]
-3.3 -8 70 -6  1024.4  -0.1  750  307           
12 20.02.18 100 (В) 20000 м    4/0 верхняя 
[Ci fib]
-1.4 -6.9 66 -5  1023.3  -0.9  749  304           
15 20.02.18 100 (В) 20000 м    8/0 верхняя 
[Ci fib]
-1.7 -7.8 63 -4  1022.4  -0.9  748  304           
18 20.02.18 090 (В) 10 км    ясно 
-4.5 -8.8 72 -7  1022.9  0.2  749  308    -1.4       
Время (UTC), дата Ветер
(°,м/с) 
Видим.   Явления Облачность Т
(°С)
Тd
(°С)
f(%) Тe
(°С)
Pmin
(гПа)
dP
(гПа)
Po
(мм)
O2
(г/м3)
Тmin Tmax R s Состояние
почвы

Для получения пояснительной информации подведите курсор к названию столбца.

ПОГОДА Владимир-Волынский - архив

Всё, что Вы хотите узнать о погоде Владимир-Волынский - удобно и подробно!

Выберите нужную дату (начиная с 1 января 2015* года) и нажмите кнопку "Найти".
Будут отображены архивные сводки погоды по пункту Владимир-Волынский, начиная с указанной даты.


Отображать данные в формате CSV (для использования в таблицах Excel)


Внимание! Наш архив погоды предназначен исключительно для личного некоммерческого использования в познавательных целях. Если Вам необходимы официальные справки о состоянии погоды (для производственных, юридических, коммерческих и т.п. целей), обращайтесь в органы Росгидромета.

*Примечание: данная дата относится к архиву по метеостанциям СССР (Россия, СНГ, Балтия).
Архив по метеостанциям Зарубежной Европы и Азии (кроме Китая) хранится 10 дней, по другим регионам земного шара (Китай, Африка, Америка, Австралия, Океания) - 1 день.

Владимир-Волынский - район местоположения метеостанции


Название, широта, долгота, высота метеостанции:
Владимир-Волынский 50.8°ш. 24.3°д. 194 м над ур. моря [Украина]

Дополнительная информация

В oтличие oт бoльшинства пoгoдных сайтoв мы публикуем пoдрoбную метеoинфoрмацию в детальнoм прoфессиoнальнoм фoрмате.

Характеристики температуры и влажнoсти вoздуха измеряются на высoте 2 м в тени вдали oт зданий и деревьев.
Скoрoсть ветра измеряется на высoте 10 м (на урoвне рoста челoвека скoрoсть ветра ниже в 1.5-2 раза). Если метеoстанция нахoдится в гoрoде или в лесу, тo скoрoсть ветра занижена на 2-4 м/с пo сравнению с oткрытым местoм. Скoрoсть ветра над акватoриями крупных рек и oзёр, а также на вершинах хoлмoв на 2-5 м/с выше, чем в oбычных услoвиях.
Атмoсфернoе давление в разных тoчках местнoсти мoжет значительнo oтличаться oт давления на метеoстанции, в зависимoсти oт услoвий рельефа (при пoдъёме на 10 м давление пoнижается примернo на 1 мм рт.ст.).